This is the latest recevied weather packets stored in our database for station/object KB3VSP. If no packets are shown the sender has not sent any weather packets the latest 10 day(s).
| Time | Temp. | Humidity | Pressure | Rain* | Wind** | Luminosity | Snow |
|---|---|---|---|---|---|---|---|
| 1777550132 | 7.22° C | 99% | 1010.9 hPa | 1.78 mm | - | 9 W/m² | - |
| 1777549828 | 7.22° C | 99% | 1011 hPa | 0 mm | - | 10 W/m² | - |
| 1777549524 | 7.78° C | 99% | 1010.8 hPa | 0 mm | - | 15 W/m² | - |
| 1777549221 | 7.22° C | 99% | 1010.8 hPa | 1.27 mm | - | 11 W/m² | - |
| 1777548917 | 7.78° C | 99% | 1010.7 hPa | 4.32 mm | - | 10 W/m² | - |
| 1777548615 | 7.78° C | 99% | 1010.9 hPa | 6.1 mm | - | 7 W/m² | - |
| 1777548311 | 7.78° C | 99% | 1010.8 hPa | 7.11 mm | - | 7 W/m² | - |
| 1777548009 | 8.33° C | 98% | 1010.5 hPa | 4.32 mm | - | 5 W/m² | - |
| 1777547703 | 8.33° C | 97% | 1010.4 hPa | 0 mm | - | 2 W/m² | - |
| 1777547400 | 8.33° C | 97% | 1010.4 hPa | 0 mm | - | 0 W/m² | - |
| 1777547098 | 8.33° C | 97% | 1010.1 hPa | 0 mm | - | 7 W/m² | - |
| 1777546795 | 8.33° C | 98% | 1010.1 hPa | 0 mm | - | 7 W/m² | - |
| 1777546492 | 8.33° C | 98% | 1009.8 hPa | 0 mm | - | 7 W/m² | - |
| 1777546189 | 8.33° C | 98% | 1010.2 hPa | 0 mm | - | 3 W/m² | - |
| 1777545885 | 8.33° C | 98% | 1010.2 hPa | 0 mm | - | 3 W/m² | - |
| 1777545582 | 8.33° C | 98% | 1010.1 hPa | 0 mm | - | 2 W/m² | - |
| 1777545279 | 8.33° C | 98% | 1010.1 hPa | 0 mm | - | 1 W/m² | - |
| 1777544976 | 8.33° C | 98% | 1010.3 hPa | 0 mm | - | 1 W/m² | - |
| 1777544673 | 8.33° C | 98% | 1010 hPa | 0 mm | - | 0 W/m² | - |
| 1777544368 | 8.33° C | 99% | 1010.2 hPa | 0 mm | - | 0 W/m² | - |
| 1777544065 | 8.33° C | 99% | 1010.1 hPa | 0 mm | - | 0 W/m² | - |
| 1777543763 | 8.33° C | 99% | 1010.3 hPa | 0 mm | - | 0 W/m² | - |
| 1777543459 | 8.33° C | 99% | 1010.3 hPa | 0 mm | - | 0 W/m² | - |
| 1777543154 | 8.33° C | 99% | 1010.2 hPa | 0 mm | - | 0 W/m² | - |
| 1777542851 | 8.33° C | 99% | 1010.3 hPa | 0 mm | - | 0 W/m² | - |
* Rain latest hour (hover to see other rain measurements)
** Current wind speed in m/s (hover to see current wind gust speed)